| time (UTC) | temp C | wind direction | speed KPH | gust KPH | rain 1hr cm | rain 24hr cm | rain mn cm | humidity % | barometer mb |
| 20260831131542 | 25 | 242 | 1.6 | 11.3 | 0.00 | 0.00 | 0.00 | 63 | 1013.8 |
| 20260831130043 | 25 | 244 | 4.8 | 11.3 | 0.00 | 0.00 | 0.00 | 63 | 1014.0 |
| 20260831124536 | 25 | 236 | 3.2 | 6.4 | 0.00 | 0.00 | 0.00 | 61 | 1013.9 |
| 20260831123029 | 25 | 267 | 3.2 | 9.7 | 0.00 | 0.00 | 0.00 | 62 | 1014.2 |
| 20260831120037 | 25 | 236 | 4.8 | 11.3 | 0.00 | 0.00 | 0.00 | 59 | 1014.2 |
| 20260831114533 | 25 | 239 | 3.2 | 12.9 | 0.00 | 0.00 | 0.00 | 59 | 1014.2 |
| 20260831111536 | 25 | 223 | 1.6 | 12.9 | 0.00 | 0.00 | 0.00 | 62 | 1014.5 |
| 20260831104549 | 23 | 235 | 1.6 | 12.9 | 0.00 | 0.00 | 0.00 | 63 | 1014.7 |
| 20260831103044 | 23 | 238 | 3.2 | 8.0 | 0.00 | 0.00 | 0.00 | 62 | 1014.7 |
| 20260831101537 | 23 | 244 | 3.2 | 8.0 | 0.00 | 0.00 | 0.00 | 59 | 1014.7 |
| 20260831100037 | 23 | 228 | 4.8 | 14.5 | 0.00 | 0.00 | 0.00 | 62 | 1014.8 |
| 20260831094531 | 22 | 315 | 1.6 | 6.4 | 0.00 | 0.00 | 0.00 | 65 | 1014.9 |
| 20260831093030 | 22 | 315 | 0.0 | 6.4 | 0.00 | 0.00 | 0.00 | 68 | 1015.1 |
| 20260831090035 | 21 | 302 | 0.0 | 6.4 | 0.00 | 0.00 | 0.00 | 69 | 1015.2 |
| 20260831083038 | 20 | 309 | 0.0 | 1.6 | 0.00 | 0.00 | 0.00 | 71 | 1015.1 |
| 20260831081540 | 19 | 309 | 0.0 | 0.0 | 0.00 | 0.00 | 0.00 | 76 | 1015.1 |
| 20260831074538 | 18 | 309 | 0.0 | 1.6 | 0.00 | 0.00 | 0.00 | 80 | 1015.0 |
| 20260831071538 | 17 | 309 | 0.0 | 0.0 | 0.00 | 0.00 | 0.00 | 84 | 1015.0 |
| 20260831064535 | 15 | 309 | 0.0 | 0.0 | 0.00 | 0.00 | 0.00 | 94 | 1015.0 |
| 20260831061529 | 13 | 309 | 0.0 | 0.0 | 0.00 | 0.00 | 0.00 | 96 | 1015.1 |
| 20260831054537 | 12 | 309 | 0.0 | 0.0 | 0.00 | 0.00 | 0.00 | 96 | 1015.1 |
| 20260831051540 | 11 | 309 | 0.0 | 0.0 | 0.00 | 0.00 | 0.00 | 95 | 1014.9 |
| 20260831050042 | 11 | 309 | 0.0 | 0.0 | 0.00 | 0.00 | 0.00 | 95 | 1014.8 |
| 20260831043039 | 11 | 309 | 0.0 | 0.0 | 0.00 | 0.00 | 0.00 | 95 | 1014.7 |
| 20260831040038 | 12 | 309 | 0.0 | 0.0 | 0.00 | 0.00 | 0.00 | 95 | 1014.7 |
| 20260831033043 | 11 | 309 | 0.0 | 0.0 | 0.00 | 0.00 | 0.00 | 95 | 1014.9 |
| 20260831030042 | 12 | 309 | 0.0 | 0.0 | 0.00 | 0.00 | 0.00 | 95 | 1015.2 |
| 20260831023042 | 12 | 309 | 0.0 | 0.0 | 0.00 | 0.00 | 0.00 | 95 | 1015.3 |
| 20260831020042 | 12 | 309 | 0.0 | 0.0 | 0.00 | 0.00 | 0.00 | 94 | 1015.2 |
| 20260831014545 | 12 | 309 | 0.0 | 0.0 | 0.00 | 0.00 | 0.00 | 94 | 1015.4 |
| 20260831011545 | 12 | 309 | 0.0 | 0.0 | 0.00 | 0.00 | 0.00 | 94 | 1015.3 |
| 20260831010044 | 12 | 309 | 0.0 | 0.0 | 0.00 | 0.00 | 0.00 | 94 | 1015.4 |
| 20260831004532 | 12 | 309 | 0.0 | 0.0 | 0.00 | 0.00 | 0.00 | 94 | 1015.4 |
| 20260831001532 | 12 | 309 | 0.0 | 0.0 | 0.00 | 0.00 | 0.00 | 93 | 1015.6 |
| 20260830234544 | 13 | 309 | 0.0 | 0.0 | 0.00 | 0.00 | 0.00 | 93 | 1015.8 |
| 20260830231536 | 13 | 309 | 0.0 | 0.0 | 0.00 | 0.00 | 0.00 | 92 | 1015.7 |
| 20260830230035 | 13 | 309 | 0.0 | 0.0 | 0.00 | 0.00 | 0.00 | 92 | 1015.8 |
| 20260830223041 | 13 | 309 | 0.0 | 0.0 | 0.00 | 0.00 | 0.00 | 91 | 1016.0 |
| 20260830220112 | 14 | 309 | 0.0 | 0.0 | 0.00 | 0.00 | 0.00 | 91 | 1015.9 |
| 20260830213045 | 14 | 309 | 0.0 | 0.0 | 0.00 | 0.00 | 0.00 | 90 | 1015.9 |
| 20260830210035 | 15 | 309 | 0.0 | 0.0 | 0.00 | 0.00 | 0.00 | 89 | 1015.6 |
| 20260830204528 | 15 | 309 | 0.0 | 0.0 | 0.00 | 0.00 | 0.00 | 89 | 1015.8 |
| 20260830201537 | 15 | 309 | 0.0 | 0.0 | 0.00 | 0.00 | 0.00 | 87 | 1015.6 |
| 20260830200027 | 15 | 309 | 0.0 | 0.0 | 0.00 | 0.00 | 0.00 | 87 | 1015.6 |
| 20260830193040 | 16 | 309 | 0.0 | 0.0 | 0.00 | 0.00 | 0.00 | 85 | 1015.5 |
| 20260830190056 | 16 | 309 | 0.0 | 0.0 | 0.00 | 0.00 | 0.00 | 83 | 1015.5 |
| 20260830183105 | 17 | 309 | 0.0 | 0.0 | 0.00 | 0.00 | 0.00 | 81 | 1015.1 |
| 20260830180053 | 18 | 309 | 0.0 | 0.0 | 0.00 | 0.00 | 0.00 | 79 | 1014.6 |
| 20260830173052 | 19 | 309 | 0.0 | 1.6 | 0.00 | 0.00 | 0.00 | 75 | 1014.3 |
| 20260830170051 | 21 | 309 | 0.0 | 1.6 | 0.00 | 0.00 | 0.00 | 70 | 1014.1 |
| 20260830163050 | 24 | 309 | 0.0 | 3.2 | 0.00 | 0.00 | 0.00 | 59 | 1014.2 |
| 20260830160048 | 25 | 309 | 1.6 | 4.8 | 0.00 | 0.00 | 0.00 | 57 | 1014.3 |
| 20260830153804 | 25 | 328 | 0.0 | 3.2 | 0.00 | 0.00 | 0.00 | 56 | 1014.4 |
| 20260830150046 | 25 | 302 | 0.0 | 4.8 | 0.00 | 0.00 | 0.00 | 55 | 1014.5 |
| 20260830143045 | 25 | 289 | 0.0 | 4.8 | 0.00 | 0.00 | 0.00 | 55 | 1014.4 |
| 20260830133043 | 25 | 344 | 0.0 | 8.0 | 0.00 | 0.00 | 0.00 | 57 | 1014.7 |